Home   Weather   41°45'N, 71°26'W   Past weeks
Flag for USA

Past Weather in 41°45'N, 71°26'W, USA — Yesterday and Last 2 Weeks

Now
65 °F

Mostly cloudy.


Feels Like: 65 °F
Forecast: 72 / 62 °F
Wind: 7 mph from North

Location: Green State Airport

Current Time: Jun 19, 2019 at 3:07:36 am

Latest Report: Jun 19, 2019 at 2:37 am


Visibility: 9 mi

Pressure: 29.87 "Hg

Humidity: 68%

Dew Point: 54 °F

Location of 41°45'N, 71°26'WLocation

Past Weather in 41°45'N, 71°26'W — Graph

°F

41°45'N, 71°26'W Temperature Yesterday

Maximum temperature yesterday: 69 °F (at 9:59 am)
Minimum temperature yesterday: 64 °F (at 4:51 am)
Average temperature yesterday: 66 °F

High & Low Weather Summary for the Past Weeks

 TemperatureHumidityPressure
High83 °F (Jun 6, 12:51 pm)100% (Jun 14, 12:51 am)30.38 "Hg (Jun 14, 12:51 am)
Low49 °F (Jun 4, 3:51 am)21% (Jun 7, 1:51 pm)29.66 "Hg (Jun 6, 4:51 am)
Average65 °F69%29.97 "Hg
* Reported Jun 4 1:51 am — Jun 19 1:51 am, 41°45'N, 71°26'W. Weather by CustomWeather, © 2019

Note: Actual official high and low records may vary slightly from our data, if they occured in-between our weather recording intervals... More about our weather records

Advertising

41°45'N, 71°26'W Weather History for the Previous 24 Hours

Scroll right to see more
 ConditionsComfort  
Time TempWeatherWind HumidityBarometerVisibility
1:51 am
Wed, Jun 19
65 °FLow clouds.3 mph59%29.87 "Hg10 mi
1:19 am65 °FMostly cloudy.5 mph81%29.88 "Hg10 mi
12:51 am65 °FLight rain. Mostly cloudy.5 mph78%29.87 "Hg6 mi
12:27 am65 °FLow clouds.3 mph97%29.89 "Hg9 mi
11:44 pm
Tue, Jun 18
65 °FLight rain. Fog.6 mph97%29.89 "Hg2 mi
10:51 pm65 °FRain. Fog.3 mph97%29.90 "Hg3 mi
10:44 pm65 °FLight rain. Fog.5 mph97%29.90 "Hg5 mi
9:51 pm65 °FLight rain. Fog.3 mph97%29.90 "Hg6 mi
8:51 pm65 °FLight rain. Fog.5 mph97%29.90 "Hg5 mi
7:51 pm65 °FLight rain. Low clouds.No wind87%29.90 "Hg8 mi
6:51 pm65 °FLight rain. Low clouds.6 mph87%29.90 "Hg10 mi
5:51 pm65 °FLight rain. Low clouds.6 mph87%29.90 "Hg9 mi
4:51 pm65 °FLight rain. Low clouds.5 mph94%29.93 "Hg10 mi
3:51 pm66 °FLight rain. Low clouds.8 mph90%29.93 "Hg10 mi
3:35 pm67 °FLight rain. Mostly cloudy.9 mph76%29.94 "Hg9 mi
2:51 pm67 °FLight rain. Cloudy.8 mph93%29.95 "Hg10 mi
2:34 pm67 °FLight rain. Mostly cloudy.8 mph93%29.95 "Hg7 mi
1:51 pm67 °FLight rain. More clouds than sun.9 mph85%29.96 "Hg7 mi
12:51 pm66 °FLight rain. Fog.10 mph87%29.97 "Hg6 mi
12:15 pm68 °FMore clouds than sun.8 mph78%29.98 "Hg10 mi
12:00 pm69 °FMostly cloudy.9 mph66%29.98 "Hg10 mi
10:59 am69 °FLight rain. Cloudy.6 mph70%29.97 "Hg7 mi
10:11 am69 °FMore clouds than sun.No wind68%29.98 "Hg10 mi
9:59 am69 °FMostly cloudy.3 mph68%29.98 "Hg10 mi
9:12 am68 °FPartly sunny.6 mph82%29.99 "Hg5 mi
8:51 am67 °FCloudy.7 mph85%29.98 "Hg5 mi
8:39 am66 °FFog.5 mph87%29.98 "Hg4 mi
7:51 am66 °FFog.3 mph87%29.97 "Hg4 mi
7:22 am65 °FFog.5 mph87%29.98 "Hg4 mi
7:08 am65 °FFog.5 mph87%29.98 "Hg3 mi
6:19 am64 °FLight rain. Fog.6 mph90%29.98 "Hg2 mi
5:51 am64 °FLight rain. Cloudy.5 mph81%29.98 "Hg2 mi
5:36 am64 °FLight rain. Fog.6 mph90%29.98 "Hg2 mi
4:51 am64 °FRain. Mostly cloudy.5 mph84%29.98 "Hg4 mi
3:51 am65 °FLight rain. Mostly cloudy.5 mph87%29.98 "Hg7 mi
Weather by CustomWeather, © 2019

See weather overview